SAOCOM 1-B

导读

SAOCOM 1-B是阿根廷研制的L波段合成孔径雷达卫星,于北京时间2020年8月30日由SpaceX猎鹰9号火箭从卡纳维拉尔角发射升空。该卫星历经18年规划、8年建造,多次因疫情、技术和天气推迟发射。它与SAOCOM 1-A组网,用于灾害监测、农业评估、冰川研究等,标志阿根廷跻身少数掌握空间雷达技术的国家。

Basic Information
目录编号:
46265
目录名称:
SAOCOM 1-B
国际标识:
2020-059A
轨道中心:
EARTH
卫星名称:
SAOCOM 1-B
卫星全名:
--
卫星状态:
在轨 (已飞行2203 天)
发射日期:
2020-08-30 UTC
国别 :
阿根廷 (AR)
星等 :
--
This satellite is enrolled in the Space Conjunction Data Service (SCDS) and the current flight risk assessment level is: No High Risk
Orbit Information
数据来源 国际轨道数据 AOE轨道数据
星历时间 2026-09-11T15:27:25+0800
10小时前
查看轨道信息
2026-09-10T22:00:00+0800
1天前
查看轨道信息
半长轴 7000.643km 7000.64km
偏心率 0.0001496 0.0001437
轨道倾角 97.890° 97.890°
近地点辐角 82.492° 85.163°
升交点赤经 78.922° 78.205°
平近点角 277.647° 356.244°
近地点 621.458km 621.497km
远地点 623.554km 623.509km
周期 97.155分钟 97.155分钟
每日圈数 14.821629 14.821638
Detailed Information
使用方式:
暂无
2D Orbit Map
3D Orbit Map
Orbit Altitude Analysis Chart
Orbit Inclination Analysis Chart
Orbit Comprehensive Analysis Chart
View Comprehensive Chart
Conjunction Data List
Event ID Objects TCA Miss Dist (km) Collision Risk Probability Collision Risk Index (CRI) Action
CDM_260913-094104-626506-512821
2026-09-13T
09:41:33+0000
2.810 km
极远距离
8.834943E-7 极低风险 0.34
CDM_260913-220802-142304-626522
2026-09-13T
22:08:40+0000
2.915 km
极远距离
7.762429E-7 极低风险 0.33
Miss Distance Evolution Trend with All Objects
Collision Probability Evolution Trend with All Objects